FLOCK 3P-18 (41957 NORAD) Tracking and Keplerian Element Data

This shows tracking and keplerian element data for the satellite.

Feedback or suggestion? Click here.




ElementValue
Catalog41957
NameFLOCK 3P-18
Epoch Orbit17716
Epoch Day114.73629208
Epoch Year2020
RAAN184.0644
Inclination97.3643
Eccentricity0.0009693
Argument of Perigee116.7968
Mean Anonmoly243.4264
Mean Motion15.2830825
Decay Rate3.327E-05
L11 41957U 17008K 20114.73629208 .00003327 00000-0 12322-3 0 9995
L22 41957 97.3643 184.0644 0009693 116.7968 243.4264 15.28308250177163



Live tracking and technical data element details for FLOCK 3P-18 (NORAD 41957). FLOCK 3P-18 can be tracked NOW for your location showing map with azimuth and elevation plus other details from your city location.







IsCatalogInMostPopularTable: catalog: 41957, numindb: 448
Update: records affected: 1



GetName: 41957 FLOCK 3P-18

Hit Count: updated at: Thu, 22 May 2025 04:11:21 GMT